Flag for China Weather past 2 weeks in Hohhot, Inner Mongolia, China

Now
37 °F

Clear.


Feels Like: 35 °F
Forecast: 39 / 65 °F
Wind: 3 mph from Northeast

Location: Hohhot Airport

Current Time: Oct 23, 2014 at 6:43:11 AM

Latest Report: Oct 23, 2014 at 6:00 AM


Visibility: 4 mi

Pressure: 30.01 "Hg

Humidity: 75%

Dew point: 30 °F

Location of HohhotLocation

Historic Weather in Hohhot — Graph

°F

Hohhot temperature yesterday

Maximum temperature yesterday: 66 °F (at 3:00 PM)
Minimum temperature yesterday: 39 °F (at 2:00 AM)
Average temperature yesterday: 51 °F

Past Weeks' High & Low Weather Summary

 TemperatureHumidityPressure
High75 °F (Oct 9, 3:00 PM)100% (Oct 9, 7:00 AM)30.60 "Hg (Oct 9, 7:00 AM)
Low27 °F (Oct 13, 6:00 AM)21% (Oct 15, 3:00 PM)29.95 "Hg (Oct 19, 2:00 PM)
Average49 °F63%30.16 "Hg
* Reported Oct 8 5:00 AM — Oct 23 5:00 AM, Hohhot, Weather by CustomWeather, © 2014

Note: Actual official high and low records may vary slightly from our data, if they occured in-between our weather recording intervals... More about our weather records

Advertising

Hohhot weather history for previous 24 hours

 ConditionsComfort  
Time TempWeatherWind HumidityBarometerVisibility
5:00 AM
Oct 23
39 °FClear.3 mph70%30.01 "Hg4 mi
4:00 AM39 °FClear.3 mph70%30.01 "Hg4 mi
3:00 AM41 °FClear.3 mph66%30.04 "Hg4 mi
2:00 AM41 °FClear.3 mph70%30.04 "Hg4 mi
1:00 AM41 °FClear.3 mph70%30.04 "Hg4 mi
12:00 AM43 °FClear.6 mph71%30.04 "Hg4 mi
11:00 PM
Oct 22
45 °FClear.6 mph61%30.07 "Hg4 mi
10:00 PM45 °FClear.6 mph66%30.07 "Hg5 mi
9:00 PM48 °FClear.3 mph58%30.07 "Hg5 mi
8:00 PM52 °FClear.6 mph50%30.07 "Hg5 mi
7:00 PM50 °FHaze.6 mph58%30.04 "Hg3 mi
6:00 PM57 °FHaze.1 mph41%30.04 "Hg3 mi
5:00 PM63 °FSunny.6 mph34%30.04 "Hg10 mi
4:00 PM64 °FPassing clouds.6 mph32%30.04 "HgN/A
3:00 PM66 °FPassing clouds.6 mph28%30.04 "HgN/A
2:00 PM64 °FPassing clouds.6 mph30%30.07 "HgN/A
1:00 PM63 °FPassing clouds.3 mph34%30.09 "HgN/A
12:00 PM61 °FSunny.6 mph36%30.12 "Hg10 mi
11:00 AM59 °FSunny.1 mph39%30.15 "Hg10 mi
10:00 AM55 °FPassing clouds.1 mph44%30.15 "HgN/A
9:00 AM54 °FPassing clouds.6 mph47%30.18 "HgN/A
8:00 AM45 °FHaze.3 mph71%30.15 "Hg3 mi
7:00 AM45 °FPassing clouds.3 mph66%30.15 "HgN/A
6:00 AM43 °FClear.8 mph71%30.15 "Hg10 mi
Weather by CustomWeather, © 2014

See weather overviewHow to use our weather pages